Time,TemperatureF,DewpointF,PressureIn,WindDirection,WindDirectionDegrees,WindSpeedMPH,WindSpeedGustMPH,Humidity,HourlyPrecipIn,Conditions,Clouds,dailyrainin,SoftwareType,DateUTC
2013-03-07 00:02:00,23.5,36.9,29.84,North,7,0.0,0.0,32,0.00,,,0.00,meteohub,2013-03-07 06:02:00,
2013-03-07 00:07:00,23.5,36.7,29.84,North,7,0.0,0.0,32,0.00,,,0.00,meteohub,2013-03-07 06:07:00,
2013-03-07 00:12:00,23.4,36.5,29.84,North,7,0.0,0.0,32,0.00,,,0.00,meteohub,2013-03-07 06:12:00,
2013-03-07 00:18:00,23.2,36.5,29.84,North,7,0.0,0.0,32,0.00,,,0.00,meteohub,2013-03-07 06:18:00,
2013-03-07 00:23:00,23.2,36.1,29.84,North,7,0.0,0.0,32,0.00,,,0.00,meteohub,2013-03-07 06:23:00,
2013-03-07 00:28:00,23.0,36.0,29.84,North,7,0.0,0.0,32,0.00,,,0.00,meteohub,2013-03-07 06:28:00,
2013-03-07 00:33:00,23.0,35.8,29.84,North,7,0.0,0.0,32,0.00,,,0.00,meteohub,2013-03-07 06:33:00,
2013-03-07 00:38:00,22.8,35.6,29.84,North,7,0.0,0.0,32,0.00,,,0.00,meteohub,2013-03-07 06:38:00,
2013-03-07 00:43:00,22.8,35.4,29.84,North,7,0.0,0.0,32,0.00,,,0.00,meteohub,2013-03-07 06:43:00,
2013-03-07 00:48:00,22.8,35.2,29.84,North,7,0.0,0.0,32,0.00,,,0.00,meteohub,2013-03-07 06:48:00,
2013-03-07 00:53:00,22.8,35.2,29.84,North,7,0.0,0.0,32,0.00,,,0.00,meteohub,2013-03-07 06:53:00,
2013-03-07 00:58:00,22.8,35.2,29.84,North,7,0.0,0.0,32,0.00,,,0.00,meteohub,2013-03-07 06:58:00,
2013-03-07 01:03:00,22.8,35.1,29.84,North,7,0.0,0.0,32,0.00,,,0.00,meteohub,2013-03-07 07:03:00,
2013-03-07 01:08:00,23.0,34.9,29.84,North,7,0.0,0.0,32,0.00,,,0.00,meteohub,2013-03-07 07:08:00,
2013-03-07 01:13:00,23.2,34.7,29.84,North,7,0.0,0.0,32,0.00,,,0.00,meteohub,2013-03-07 07:13:00,
2013-03-07 01:18:00,23.5,34.5,29.87,North,7,0.0,0.0,32,0.00,,,0.00,meteohub,2013-03-07 07:18:00,
2013-03-07 01:23:00,23.7,34.5,29.87,North,7,0.0,0.0,32,0.00,,,0.00,meteohub,2013-03-07 07:23:00,
2013-03-07 01:29:00,23.7,34.3,29.87,North,7,0.0,0.0,32,0.00,,,0.00,meteohub,2013-03-07 07:29:00,
2013-03-07 01:34:00,23.9,34.2,29.87,North,7,0.0,0.0,32,0.00,,,0.00,meteohub,2013-03-07 07:34:00,
2013-03-07 01:39:00,24.1,34.0,29.87,North,7,0.0,0.0,32,0.00,,,0.00,meteohub,2013-03-07 07:39:00,
2013-03-07 01:44:00,24.3,34.0,29.87,North,7,0.0,0.0,32,0.00,,,0.00,meteohub,2013-03-07 07:44:00,
2013-03-07 01:49:00,24.3,34.0,29.87,North,7,0.0,0.0,32,0.00,,,0.00,meteohub,2013-03-07 07:49:00,
2013-03-07 01:54:00,24.4,33.8,29.87,North,7,0.0,0.0,32,0.00,,,0.00,meteohub,2013-03-07 07:54:00,
2013-03-07 02:01:00,24.4,33.8,29.87,North,7,0.0,0.0,32,0.00,,,0.00,meteohub,2013-03-07 08:01:00,
2013-03-07 02:06:00,24.4,33.4,29.87,North,7,0.0,0.0,32,0.00,,,0.00,meteohub,2013-03-07 08:06:00,
2013-03-07 02:11:00,24.4,33.3,29.87,North,7,0.0,0.0,32,0.00,,,0.00,meteohub,2013-03-07 08:11:00,
2013-03-07 02:17:00,24.6,33.3,29.87,North,7,0.0,0.0,32,0.00,,,0.00,meteohub,2013-03-07 08:17:00,
2013-03-07 02:22:00,24.4,33.1,29.87,North,7,0.0,0.0,32,0.00,,,0.00,meteohub,2013-03-07 08:22:00,
2013-03-07 02:27:00,24.4,33.1,29.87,North,7,0.0,0.0,32,0.00,,,0.00,meteohub,2013-03-07 08:27:00,
2013-03-07 02:32:00,24.4,32.9,29.87,North,7,0.0,0.0,32,0.00,,,0.00,meteohub,2013-03-07 08:32:00,
2013-03-07 02:37:00,24.4,32.0,29.87,North,7,0.0,0.0,31,0.00,,,0.00,meteohub,2013-03-07 08:37:00,
2013-03-07 02:42:00,24.6,32.0,29.87,North,7,0.0,0.0,31,0.00,,,0.00,meteohub,2013-03-07 08:42:00,
2013-03-07 02:47:00,24.6,31.8,29.87,North,7,0.0,0.0,31,0.00,,,0.00,meteohub,2013-03-07 08:47:00,
2013-03-07 02:56:00,24.4,31.8,29.87,North,7,0.0,0.0,31,0.00,,,0.00,meteohub,2013-03-07 08:56:00,
2013-03-07 03:01:00,24.3,31.6,29.87,North,7,0.0,0.0,31,0.00,,,0.00,meteohub,2013-03-07 09:01:00,
2013-03-07 03:06:00,24.3,31.5,29.87,North,7,0.0,0.0,31,0.00,,,0.00,meteohub,2013-03-07 09:06:00,
2013-03-07 03:11:00,24.3,31.5,29.87,North,7,0.0,0.0,31,0.00,,,0.00,meteohub,2013-03-07 09:11:00,
2013-03-07 03:17:00,24.3,31.5,29.87,North,7,0.0,0.0,31,0.00,,,0.00,meteohub,2013-03-07 09:17:00,
2013-03-07 03:22:00,24.3,31.3,29.87,North,7,0.0,0.0,31,0.00,,,0.00,meteohub,2013-03-07 09:22:00,
2013-03-07 03:27:00,24.4,31.3,29.87,North,7,0.0,0.0,31,0.00,,,0.00,meteohub,2013-03-07 09:27:00,
2013-03-07 03:32:00,24.3,31.3,29.87,North,7,0.0,0.0,31,0.00,,,0.00,meteohub,2013-03-07 09:32:00,
2013-03-07 03:40:00,24.3,31.1,29.87,North,7,0.0,0.0,31,0.00,,,0.00,meteohub,2013-03-07 09:40:00,
2013-03-07 03:46:00,24.4,30.9,29.87,North,7,0.0,0.0,31,0.00,,,0.00,meteohub,2013-03-07 09:46:00,
2013-03-07 03:51:00,24.4,30.7,29.87,North,7,0.0,0.0,31,0.00,,,0.00,meteohub,2013-03-07 09:51:00,
2013-03-07 03:56:00,24.4,30.7,29.87,North,7,0.0,0.0,31,0.00,,,0.00,meteohub,2013-03-07 09:56:00,
2013-03-07 04:01:00,24.3,30.7,29.87,North,7,0.0,0.0,31,0.00,,,0.00,meteohub,2013-03-07 10:01:00,
2013-03-07 04:06:00,24.3,30.6,29.87,North,7,0.0,0.0,31,0.00,,,0.00,meteohub,2013-03-07 10:06:00,
2013-03-07 04:11:00,24.3,30.4,29.87,North,7,0.0,0.0,31,0.00,,,0.00,meteohub,2013-03-07 10:11:00,
2013-03-07 04:16:00,24.4,30.4,29.87,North,7,0.0,0.0,31,0.00,,,0.00,meteohub,2013-03-07 10:16:00,
2013-03-07 04:22:00,24.4,30.4,29.90,North,7,0.0,0.0,31,0.00,,,0.00,meteohub,2013-03-07 10:22:00,
2013-03-07 04:27:00,24.4,30.2,29.90,North,7,0.0,0.0,31,0.00,,,0.00,meteohub,2013-03-07 10:27:00,
2013-03-07 04:32:00,24.4,30.2,29.90,North,7,0.0,0.0,31,0.00,,,0.00,meteohub,2013-03-07 10:32:00,
2013-03-07 04:37:00,24.4,30.2,29.90,North,7,0.0,0.0,31,0.00,,,0.00,meteohub,2013-03-07 10:37:00,
2013-03-07 04:42:00,24.4,30.2,29.90,North,7,0.0,0.0,31,0.00,,,0.00,meteohub,2013-03-07 10:42:00,
2013-03-07 04:50:00,24.4,30.0,29.90,North,7,0.0,0.0,31,0.00,,,0.00,meteohub,2013-03-07 10:50:00,
2013-03-07 04:55:00,24.1,29.8,29.90,North,7,0.0,0.0,31,0.00,,,0.00,meteohub,2013-03-07 10:55:00,
2013-03-07 05:00:00,23.7,29.8,29.90,North,7,0.0,0.0,31,0.00,,,0.00,meteohub,2013-03-07 11:00:00,
2013-03-07 05:05:00,23.5,29.8,29.90,North,7,0.0,0.0,31,0.00,,,0.00,meteohub,2013-03-07 11:05:00,
2013-03-07 05:11:00,23.4,29.7,29.90,North,7,0.0,0.0,31,0.00,,,0.00,meteohub,2013-03-07 11:11:00,
2013-03-07 05:16:00,23.2,29.7,29.90,North,7,0.0,0.0,31,0.00,,,0.00,meteohub,2013-03-07 11:16:00,
2013-03-07 05:21:00,22.8,29.5,29.90,North,7,0.0,0.0,31,0.00,,,0.00,meteohub,2013-03-07 11:21:00,
2013-03-07 05:26:00,22.5,29.5,29.90,North,7,0.0,0.0,31,0.00,,,0.00,meteohub,2013-03-07 11:26:00,
2013-03-07 05:31:00,22.3,29.3,29.90,North,7,0.0,0.0,31,0.00,,,0.00,meteohub,2013-03-07 11:31:00,
2013-03-07 05:36:00,22.5,29.3,29.90,North,7,0.0,0.0,31,0.00,,,0.00,meteohub,2013-03-07 11:36:00,
2013-03-07 05:42:00,22.5,29.3,29.90,North,7,0.0,0.0,31,0.00,,,0.00,meteohub,2013-03-07 11:42:00,
2013-03-07 05:47:00,22.6,29.1,29.90,North,7,0.0,0.0,31,0.00,,,0.00,meteohub,2013-03-07 11:47:00,
2013-03-07 05:52:00,22.5,29.1,29.90,North,7,0.0,0.0,31,0.00,,,0.00,meteohub,2013-03-07 11:52:00,
2013-03-07 05:58:00,22.3,28.9,29.90,North,7,0.0,0.0,31,0.00,,,0.00,meteohub,2013-03-07 11:58:00,
2013-03-07 06:03:00,21.9,28.9,29.90,North,7,0.0,0.0,31,0.00,,,0.00,meteohub,2013-03-07 12:03:00,
2013-03-07 06:08:00,21.9,28.9,29.90,North,7,0.0,0.0,31,0.00,,,0.00,meteohub,2013-03-07 12:08:00,
2013-03-07 06:15:00,21.7,28.9,29.90,North,7,0.0,0.0,31,0.00,,,0.00,meteohub,2013-03-07 12:15:00,
2013-03-07 06:20:00,21.6,31.3,29.90,North,7,0.0,0.0,32,0.00,,,0.00,meteohub,2013-03-07 12:20:00,
2013-03-07 06:25:00,21.6,33.1,29.90,North,7,0.0,0.0,33,0.00,,,0.00,meteohub,2013-03-07 12:25:00,
2013-03-07 06:30:00,21.4,34.2,29.90,North,7,0.0,0.0,33,0.00,,,0.00,meteohub,2013-03-07 12:30:00,
2013-03-07 06:37:00,21.4,34.9,29.90,North,7,0.0,0.0,33,0.00,,,0.00,meteohub,2013-03-07 12:37:00,
2013-03-07 06:42:00,21.4,36.1,29.90,North,7,0.0,0.0,33,0.00,,,0.00,meteohub,2013-03-07 12:42:00,
2013-03-07 06:47:00,21.6,36.7,29.90,North,7,0.0,0.0,33,0.00,,,0.00,meteohub,2013-03-07 12:47:00,
2013-03-07 06:53:00,21.9,37.4,29.90,North,7,0.0,0.0,33,0.00,,,0.00,meteohub,2013-03-07 12:53:00,
2013-03-07 07:00:00,21.9,37.6,29.90,North,7,0.0,0.0,33,0.00,,,0.00,meteohub,2013-03-07 13:00:00,
2013-03-07 07:05:00,22.6,37.2,29.90,North,7,0.0,0.0,33,0.00,,,0.00,meteohub,2013-03-07 13:05:00,
2013-03-07 07:13:00,22.8,37.4,29.90,North,7,0.0,0.0,33,0.00,,,0.00,meteohub,2013-03-07 13:13:00,
2013-03-07 07:18:00,23.9,37.0,29.90,North,7,0.0,0.0,33,0.00,,,0.00,meteohub,2013-03-07 13:18:00,
2013-03-07 07:26:00,25.0,37.4,29.90,North,7,0.0,0.0,33,0.00,,,0.00,meteohub,2013-03-07 13:26:00,
2013-03-07 07:31:00,26.8,36.9,29.90,North,7,0.0,0.0,33,0.00,,,0.00,meteohub,2013-03-07 13:31:00,
2013-03-07 07:36:00,27.5,37.2,29.90,North,7,0.0,0.0,33,0.00,,,0.00,meteohub,2013-03-07 13:36:00,
2013-03-07 07:42:00,28.0,37.0,29.90,North,7,0.0,0.0,33,0.00,,,0.00,meteohub,2013-03-07 13:42:00,
2013-03-07 07:47:00,28.6,36.7,29.90,North,7,0.0,0.0,33,0.00,,,0.00,meteohub,2013-03-07 13:47:00,
2013-03-07 07:52:00,29.1,37.0,29.90,North,7,0.0,0.0,33,0.00,,,0.00,meteohub,2013-03-07 13:52:00,
2013-03-07 07:57:00,29.7,37.4,29.90,North,7,0.0,0.0,33,0.00,,,0.00,meteohub,2013-03-07 13:57:00,
2013-03-07 08:02:00,30.4,37.0,29.90,ESE,105,0.0,0.0,33,0.00,,,0.00,meteohub,2013-03-07 14:02:00,
2013-03-07 08:07:00,31.1,37.0,29.93,SE,125,0.0,3.0,33,0.00,,,0.00,meteohub,2013-03-07 14:07:00,
2013-03-07 08:12:00,31.8,37.0,29.93,SE,132,0.0,3.0,33,0.00,,,0.00,meteohub,2013-03-07 14:12:00,
2013-03-07 08:19:00,32.0,37.0,29.93,ESE,111,0.0,5.0,33,0.00,,,0.00,meteohub,2013-03-07 14:19:00,
2013-03-07 08:24:00,32.7,37.2,29.93,ESE,123,3.0,5.0,33,0.00,,,0.00,meteohub,2013-03-07 14:24:00,
2013-03-07 08:29:00,33.1,36.9,29.93,ESE,120,0.0,5.0,33,0.00,,,0.00,meteohub,2013-03-07 14:29:00,
2013-03-07 08:34:00,33.3,36.7,29.93,SSW,205,5.0,5.0,33,0.00,,,0.00,meteohub,2013-03-07 14:34:00,
2013-03-07 08:39:00,33.1,36.3,29.93,SW,225,4.0,4.0,33,0.00,,,0.00,meteohub,2013-03-07 14:39:00,
2013-03-07 08:46:00,33.3,36.5,29.93,East,100,4.0,6.0,33,0.00,,,0.00,meteohub,2013-03-07 14:46:00,
2013-03-07 08:51:00,33.8,36.5,29.93,East,85,3.0,6.0,33,0.00,,,0.00,meteohub,2013-03-07 14:51:00,
2013-03-07 08:56:00,34.2,36.3,29.93,SSW,204,4.0,5.0,33,0.00,,,0.00,meteohub,2013-03-07 14:56:00,
2013-03-07 09:01:00,34.3,36.3,29.93,ESE,109,4.0,6.0,33,0.00,,,0.00,meteohub,2013-03-07 15:01:00,
2013-03-07 09:07:00,34.5,36.1,29.93,SSW,197,4.0,6.0,33,0.00,,,0.00,meteohub,2013-03-07 15:07:00,
2013-03-07 09:13:00,35.1,36.0,29.93,ENE,75,4.0,6.0,33,0.00,,,0.00,meteohub,2013-03-07 15:13:00,
2013-03-07 09:18:00,35.1,35.8,29.93,SSW,208,4.0,8.0,33,0.00,,,0.00,meteohub,2013-03-07 15:18:00,
2013-03-07 09:23:00,35.2,35.8,29.93,SSW,211,4.0,8.0,33,0.00,,,0.00,meteohub,2013-03-07 15:23:00,
2013-03-07 09:30:00,35.4,35.6,29.93,ESE,120,4.0,6.0,33,0.00,,,0.00,meteohub,2013-03-07 15:30:00,
2013-03-07 09:36:00,36.0,35.2,29.93,East,84,4.0,6.0,33,0.00,,,0.00,meteohub,2013-03-07 15:36:00,
2013-03-07 09:41:00,36.1,35.2,29.93,East,82,3.0,6.0,33,0.00,,,0.00,meteohub,2013-03-07 15:41:00,
2013-03-07 09:46:00,36.3,35.2,29.93,East,94,2.0,6.0,33,0.00,,,0.00,meteohub,2013-03-07 15:46:00,
2013-03-07 09:51:00,36.5,35.1,29.93,East,97,3.0,5.0,33,0.00,,,0.00,meteohub,2013-03-07 15:51:00,
2013-03-07 09:59:00,37.0,35.1,29.93,East,84,4.0,5.0,33,0.00,,,0.00,meteohub,2013-03-07 15:59:00,
2013-03-07 10:04:00,37.6,35.2,29.93,ESE,112,2.0,5.0,33,0.00,,,0.00,meteohub,2013-03-07 16:04:00,
2013-03-07 10:10:00,38.1,35.4,29.93,SE,129,4.0,8.0,33,0.00,,,0.00,meteohub,2013-03-07 16:10:00,
2013-03-07 10:15:00,38.3,35.4,29.93,SSW,209,4.0,8.0,33,0.00,,,0.00,meteohub,2013-03-07 16:15:00,
2013-03-07 10:20:00,38.3,35.2,29.93,East,101,0.0,5.0,33,0.00,,,0.00,meteohub,2013-03-07 16:20:00,
2013-03-07 10:27:00,38.1,35.2,29.93,ESE,113,4.0,5.0,33,0.00,,,0.00,meteohub,2013-03-07 16:27:00,
2013-03-07 10:32:00,37.6,35.1,29.93,SSW,212,5.0,6.0,33,0.00,,,0.00,meteohub,2013-03-07 16:32:00,
2013-03-07 10:37:00,38.1,35.1,29.93,SSW,206,6.0,6.0,33,0.00,,,0.00,meteohub,2013-03-07 16:37:00,
2013-03-07 10:42:00,38.3,35.1,29.93,South,184,3.0,6.0,33,0.00,,,0.00,meteohub,2013-03-07 16:42:00,
2013-03-07 10:47:00,38.7,34.9,29.93,North,353,0.0,6.0,33,0.00,,,0.00,meteohub,2013-03-07 16:47:00,
2013-03-07 10:53:00,38.8,34.9,29.93,SSW,208,4.0,6.0,33,0.00,,,0.00,meteohub,2013-03-07 16:53:00,
2013-03-07 10:58:00,39.4,35.1,29.93,SSW,205,2.0,5.0,33,0.00,,,0.00,meteohub,2013-03-07 16:58:00,
2013-03-07 11:03:00,39.2,35.2,29.93,ESE,102,5.0,5.0,33,0.00,,,0.00,meteohub,2013-03-07 17:03:00,
2013-03-07 11:08:00,39.4,35.2,29.93,SW,219,3.0,5.0,33,0.00,,,0.00,meteohub,2013-03-07 17:08:00,
2013-03-07 11:13:00,39.9,35.1,29.93,SSW,196,4.0,8.0,33,0.00,,,0.00,meteohub,2013-03-07 17:13:00,
2013-03-07 11:18:00,40.3,35.1,29.93,ESE,108,2.0,8.0,33,0.00,,,0.00,meteohub,2013-03-07 17:18:00,
2013-03-07 11:23:00,40.5,35.1,29.90,NE,50,3.0,8.0,33,0.00,,,0.00,meteohub,2013-03-07 17:23:00,
2013-03-07 11:29:00,40.5,35.1,29.90,SSW,212,4.0,8.0,33,0.00,,,0.00,meteohub,2013-03-07 17:29:00,
2013-03-07 11:34:00,40.8,35.1,29.90,ESE,102,4.0,8.0,33,0.00,,,0.00,meteohub,2013-03-07 17:34:00,
2013-03-07 11:39:00,40.6,34.9,29.90,ENE,61,4.0,6.0,33,0.00,,,0.00,meteohub,2013-03-07 17:39:00,
2013-03-07 11:44:00,41.0,34.9,29.90,SW,234,4.0,6.0,33,0.00,,,0.00,meteohub,2013-03-07 17:44:00,
2013-03-07 11:49:00,41.0,35.4,29.90,ENE,61,0.0,5.0,33,0.00,,,0.00,meteohub,2013-03-07 17:49:00,
2013-03-07 11:54:00,41.0,36.5,29.90,SE,136,5.0,8.0,33,0.00,,,0.00,meteohub,2013-03-07 17:54:00,
2013-03-07 12:02:00,41.4,37.6,29.90,ENE,69,3.0,8.0,33,0.00,,,0.00,meteohub,2013-03-07 18:02:00,
2013-03-07 12:07:00,41.2,37.4,29.90,ESE,113,4.0,7.0,33,0.00,,,0.00,meteohub,2013-03-07 18:07:00,
2013-03-07 12:12:00,41.2,37.6,29.90,SSW,204,4.0,7.0,33,0.00,,,0.00,meteohub,2013-03-07 18:12:00,
2013-03-07 12:17:00,41.5,37.6,29.90,SW,216,3.0,8.0,33,0.00,,,0.00,meteohub,2013-03-07 18:17:00,
2013-03-07 12:22:00,42.3,37.6,29.90,ENE,64,4.0,8.0,33,0.00,,,0.00,meteohub,2013-03-07 18:22:00,
2013-03-07 12:27:00,42.4,37.4,29.90,SSE,155,3.0,8.0,33,0.00,,,0.00,meteohub,2013-03-07 18:27:00,
2013-03-07 12:33:00,42.8,37.4,29.90,East,97,2.0,6.0,33,0.00,,,0.00,meteohub,2013-03-07 18:33:00,
2013-03-07 12:38:00,42.8,37.6,29.87,ESE,116,4.0,6.0,33,0.00,,,0.00,meteohub,2013-03-07 18:38:00,
2013-03-07 12:43:00,43.0,37.6,29.87,SE,127,3.0,8.0,33,0.00,,,0.00,meteohub,2013-03-07 18:43:00,
2013-03-07 12:48:00,43.5,37.6,29.87,NE,47,0.0,8.0,33,0.00,,,0.00,meteohub,2013-03-07 18:48:00,
2013-03-07 12:53:00,44.1,37.6,29.87,SE,130,2.0,8.0,33,0.00,,,0.00,meteohub,2013-03-07 18:53:00,
2013-03-07 12:59:00,44.2,37.0,29.87,East,94,3.0,5.0,32,0.00,,,0.00,meteohub,2013-03-07 18:59:00,
2013-03-07 13:04:00,43.9,37.6,29.87,ESE,108,0.0,8.0,33,0.00,,,0.00,meteohub,2013-03-07 19:04:00,
2013-03-07 13:10:00,44.4,37.6,29.87,SW,216,4.0,8.0,33,0.00,,,0.00,meteohub,2013-03-07 19:10:00,
2013-03-07 13:15:00,44.6,37.4,29.87,SW,217,0.0,8.0,33,0.00,,,0.00,meteohub,2013-03-07 19:15:00,
2013-03-07 13:20:00,45.0,37.4,29.87,SSW,208,3.0,6.0,33,0.00,,,0.00,meteohub,2013-03-07 19:20:00,
2013-03-07 13:25:00,45.1,37.2,29.87,SSW,205,5.0,5.0,33,0.00,,,0.00,meteohub,2013-03-07 19:25:00,
2013-03-07 13:30:00,45.0,37.2,29.87,NNW,338,0.0,7.0,33,0.00,,,0.00,meteohub,2013-03-07 19:30:00,
2013-03-07 13:37:00,45.1,37.0,29.84,SSW,209,4.0,7.0,33,0.00,,,0.00,meteohub,2013-03-07 19:37:00,
2013-03-07 13:42:00,46.0,37.0,29.84,SSW,208,6.0,7.0,33,0.00,,,0.00,meteohub,2013-03-07 19:42:00,
2013-03-07 13:47:00,45.9,37.0,29.84,ESE,105,4.0,6.0,33,0.00,,,0.00,meteohub,2013-03-07 19:47:00,
2013-03-07 13:52:00,45.3,37.0,29.84,SE,131,0.0,8.0,33,0.00,,,0.00,meteohub,2013-03-07 19:52:00,
2013-03-07 13:57:00,46.0,36.9,29.84,SSW,203,6.0,8.0,33,0.00,,,0.00,meteohub,2013-03-07 19:57:00,
2013-03-07 14:05:00,46.0,36.9,29.84,SW,225,3.0,8.0,33,0.00,,,0.00,meteohub,2013-03-07 20:05:00,
2013-03-07 14:10:00,46.0,36.9,29.84,East,85,2.0,8.0,33,0.00,,,0.00,meteohub,2013-03-07 20:10:00,
2013-03-07 14:17:00,45.7,36.9,29.84,East,95,5.0,6.0,33,0.00,,,0.00,meteohub,2013-03-07 20:17:00,
2013-03-07 14:22:00,45.5,36.9,29.84,East,84,3.0,6.0,33,0.00,,,0.00,meteohub,2013-03-07 20:22:00,
2013-03-07 14:27:00,45.7,36.9,29.84,East,95,4.0,6.0,33,0.00,,,0.00,meteohub,2013-03-07 20:27:00,
2013-03-07 14:32:00,45.7,36.9,29.84,ENE,75,0.0,6.0,33,0.00,,,0.00,meteohub,2013-03-07 20:32:00,
2013-03-07 14:37:00,45.9,36.9,29.84,ENE,71,4.0,6.0,33,0.00,,,0.00,meteohub,2013-03-07 20:37:00,
2013-03-07 14:43:00,45.9,36.9,29.84,ESE,104,2.0,6.0,33,0.00,,,0.00,meteohub,2013-03-07 20:43:00,
2013-03-07 14:48:00,45.7,36.9,29.84,ESE,122,6.0,6.0,33,0.00,,,0.00,meteohub,2013-03-07 20:48:00,
2013-03-07 14:53:00,45.5,36.9,29.84,NE,35,0.0,6.0,33,0.00,,,0.00,meteohub,2013-03-07 20:53:00,
2013-03-07 14:58:00,45.7,36.9,29.84,South,182,4.0,6.0,33,0.00,,,0.00,meteohub,2013-03-07 20:58:00,
2013-03-07 15:03:00,46.0,36.9,29.84,ENE,68,5.0,6.0,33,0.00,,,0.00,meteohub,2013-03-07 21:03:00,
2013-03-07 15:08:00,45.9,36.9,29.84,ESE,113,4.0,6.0,33,0.00,,,0.00,meteohub,2013-03-07 21:08:00,
2013-03-07 15:14:00,45.9,36.9,29.84,SSW,213,6.0,8.0,33,0.00,,,0.00,meteohub,2013-03-07 21:14:00,
2013-03-07 15:19:00,45.9,36.9,29.84,East,84,3.0,8.0,33,0.00,,,0.00,meteohub,2013-03-07 21:19:00,
2013-03-07 15:24:00,46.0,37.0,29.84,NE,36,0.0,8.0,33,0.00,,,0.00,meteohub,2013-03-07 21:24:00,
2013-03-07 15:29:00,45.9,37.0,29.84,ESE,123,5.0,6.0,33,0.00,,,0.00,meteohub,2013-03-07 21:29:00,
2013-03-07 15:34:00,45.9,37.0,29.84,SSW,211,4.0,5.0,33,0.00,,,0.00,meteohub,2013-03-07 21:34:00,
2013-03-07 15:39:00,45.9,37.0,29.84,ESE,118,2.0,6.0,33,0.00,,,0.00,meteohub,2013-03-07 21:39:00,
2013-03-07 15:44:00,46.0,37.0,29.84,East,100,3.0,6.0,33,0.00,,,0.00,meteohub,2013-03-07 21:44:00,
2013-03-07 15:50:00,46.0,37.2,29.84,East,91,4.0,6.0,33,0.00,,,0.00,meteohub,2013-03-07 21:50:00,
2013-03-07 15:55:00,46.0,37.2,29.84,ESE,103,3.0,6.0,33,0.00,,,0.00,meteohub,2013-03-07 21:55:00,
2013-03-07 16:00:00,46.0,37.2,29.84,East,87,4.0,6.0,33,0.00,,,0.00,meteohub,2013-03-07 22:00:00,
2013-03-07 16:05:00,46.2,37.2,29.81,ESE,106,4.0,6.0,33,0.00,,,0.00,meteohub,2013-03-07 22:05:00,
2013-03-07 16:11:00,46.2,37.4,29.81,SSW,208,3.0,6.0,33,0.00,,,0.00,meteohub,2013-03-07 22:11:00,
2013-03-07 16:16:00,46.4,37.4,29.81,East,83,3.0,6.0,33,0.00,,,0.00,meteohub,2013-03-07 22:16:00,
2013-03-07 16:21:00,46.2,37.4,29.84,ESE,112,4.0,6.0,33,0.00,,,0.00,meteohub,2013-03-07 22:21:00,
2013-03-07 16:29:00,46.0,37.4,29.84,East,101,3.0,5.0,33,0.00,,,0.00,meteohub,2013-03-07 22:29:00,
2013-03-07 16:34:00,45.9,37.4,29.81,ESE,106,0.0,7.0,33,0.00,,,0.00,meteohub,2013-03-07 22:34:00,
2013-03-07 16:40:00,45.5,37.4,29.81,East,85,3.0,7.0,33,0.00,,,0.00,meteohub,2013-03-07 22:40:00,
2013-03-07 16:47:00,45.1,37.4,29.81,East,89,3.0,11.0,33,0.00,,,0.00,meteohub,2013-03-07 22:47:00,
2013-03-07 16:52:00,45.3,37.4,29.81,ESE,109,3.0,11.0,33,0.00,,,0.00,meteohub,2013-03-07 22:52:00,
2013-03-07 16:57:00,45.5,37.4,29.81,East,90,4.0,5.0,33,0.00,,,0.00,meteohub,2013-03-07 22:57:00,
2013-03-07 17:02:00,45.3,37.4,29.81,East,94,4.0,6.0,33,0.00,,,0.00,meteohub,2013-03-07 23:02:00,
2013-03-07 17:07:00,45.1,37.4,29.81,ESE,118,6.0,8.0,33,0.00,,,0.00,meteohub,2013-03-07 23:07:00,
2013-03-07 17:12:00,44.8,37.4,29.81,East,89,4.0,8.0,33,0.00,,,0.00,meteohub,2013-03-07 23:12:00,
2013-03-07 17:17:00,44.6,37.2,29.81,ESE,106,0.0,8.0,33,0.00,,,0.00,meteohub,2013-03-07 23:17:00,
2013-03-07 17:23:00,44.4,37.2,29.81,SE,127,4.0,6.0,33,0.00,,,0.00,meteohub,2013-03-07 23:23:00,
2013-03-07 17:28:00,44.2,37.2,29.81,East,86,3.0,6.0,33,0.00,,,0.00,meteohub,2013-03-07 23:28:00,
2013-03-07 17:33:00,44.1,37.2,29.81,East,93,4.0,6.0,33,0.00,,,0.00,meteohub,2013-03-07 23:33:00,
2013-03-07 17:38:00,43.9,37.2,29.81,ESE,117,3.0,6.0,33,0.00,,,0.00,meteohub,2013-03-07 23:38:00,
2013-03-07 17:43:00,43.7,37.2,29.81,East,101,2.0,6.0,33,0.00,,,0.00,meteohub,2013-03-07 23:43:00,
2013-03-07 17:48:00,43.5,37.2,29.81,East,86,2.0,8.0,33,0.00,,,0.00,meteohub,2013-03-07 23:48:00,
2013-03-07 17:53:00,43.3,37.4,29.81,ESE,106,0.0,8.0,33,0.00,,,0.00,meteohub,2013-03-07 23:53:00,
2013-03-07 17:58:00,43.0,37.4,29.81,ESE,109,0.0,5.0,33,0.00,,,0.00,meteohub,2013-03-07 23:58:00,
2013-03-07 18:03:00,42.8,37.8,29.81,East,101,0.0,6.0,33,0.00,,,0.00,meteohub,2013-03-08 00:03:00,
2013-03-07 18:09:00,42.4,37.8,29.81,ESE,105,3.0,6.0,33,0.00,,,0.00,meteohub,2013-03-08 00:09:00,
2013-03-07 18:14:00,42.1,37.8,29.81,ESE,114,0.0,6.0,33,0.00,,,0.00,meteohub,2013-03-08 00:14:00,
2013-03-07 18:19:00,41.7,37.8,29.84,ESE,102,2.0,5.0,33,0.00,,,0.00,meteohub,2013-03-08 00:19:00,
2013-03-07 18:24:00,41.5,37.8,29.84,ESE,117,0.0,5.0,33,0.00,,,0.00,meteohub,2013-03-08 00:24:00,
2013-03-07 18:29:00,41.2,37.8,29.84,East,90,4.0,4.0,33,0.00,,,0.00,meteohub,2013-03-08 00:29:00,
2013-03-07 18:34:00,41.0,37.8,29.84,East,86,0.0,6.0,33,0.00,,,0.00,meteohub,2013-03-08 00:34:00,
2013-03-07 18:39:00,40.5,37.9,29.84,ESE,104,0.0,6.0,33,0.00,,,0.00,meteohub,2013-03-08 00:39:00,
2013-03-07 18:44:00,40.3,38.8,29.84,ESE,114,4.0,6.0,33,0.00,,,0.00,meteohub,2013-03-08 00:44:00,
2013-03-07 18:50:00,39.9,39.7,29.84,ESE,107,3.0,4.0,33,0.00,,,0.00,meteohub,2013-03-08 00:50:00,
2013-03-07 18:55:00,39.9,39.7,29.84,East,98,0.0,4.0,33,0.00,,,0.00,meteohub,2013-03-08 00:55:00,
2013-03-07 19:00:00,39.6,38.7,29.84,ESE,104,0.0,4.0,32,0.00,,,0.00,meteohub,2013-03-08 01:00:00,
2013-03-07 19:06:00,39.4,39.6,29.84,SE,127,3.0,4.0,33,0.00,,,0.00,meteohub,2013-03-08 01:06:00,
2013-03-07 19:11:00,39.2,39.6,29.84,ESE,116,3.0,5.0,33,0.00,,,0.00,meteohub,2013-03-08 01:11:00,
2013-03-07 19:16:00,39.0,38.7,29.84,ESE,115,0.0,6.0,32,0.00,,,0.00,meteohub,2013-03-08 01:16:00,
2013-03-07 19:21:00,38.8,39.4,29.84,ENE,66,4.0,6.0,33,0.00,,,0.00,meteohub,2013-03-08 01:21:00,
2013-03-07 19:26:00,38.8,39.9,29.84,ESE,123,3.0,6.0,33,0.00,,,0.00,meteohub,2013-03-08 01:26:00,
2013-03-07 19:32:00,38.7,38.8,29.84,East,96,3.0,5.0,32,0.00,,,0.00,meteohub,2013-03-08 01:32:00,
2013-03-07 19:37:00,38.5,38.7,29.84,ESE,103,3.0,5.0,32,0.00,,,0.00,meteohub,2013-03-08 01:37:00,
2013-03-07 19:42:00,38.5,38.7,29.84,ESE,114,4.0,6.0,32,0.00,,,0.00,meteohub,2013-03-08 01:42:00,
2013-03-07 19:47:00,38.1,38.8,29.84,ESE,120,3.0,6.0,32,0.00,,,0.00,meteohub,2013-03-08 01:47:00,
2013-03-07 19:52:00,38.1,38.8,29.84,ESE,114,3.0,6.0,32,0.00,,,0.00,meteohub,2013-03-08 01:52:00,
2013-03-07 19:57:00,37.9,38.7,29.84,ESE,109,4.0,6.0,32,0.00,,,0.00,meteohub,2013-03-08 01:57:00,
2013-03-07 20:02:00,37.8,38.8,29.84,ESE,123,3.0,6.0,32,0.00,,,0.00,meteohub,2013-03-08 02:02:00,
2013-03-07 20:07:00,37.6,38.8,29.84,East,91,4.0,6.0,32,0.00,,,0.00,meteohub,2013-03-08 02:07:00,
2013-03-07 20:12:00,37.6,38.8,29.84,ESE,112,3.0,6.0,32,0.00,,,0.00,meteohub,2013-03-08 02:12:00,
2013-03-07 20:18:00,37.6,38.7,29.84,ESE,104,3.0,6.0,32,0.00,,,0.00,meteohub,2013-03-08 02:18:00,
2013-03-07 20:23:00,37.4,39.2,29.84,ESE,109,3.0,6.0,33,0.00,,,0.00,meteohub,2013-03-08 02:23:00,
2013-03-07 20:28:00,37.4,39.2,29.84,ESE,110,0.0,6.0,33,0.00,,,0.00,meteohub,2013-03-08 02:28:00,
2013-03-07 20:33:00,37.2,39.0,29.84,ESE,105,0.0,6.0,33,0.00,,,0.00,meteohub,2013-03-08 02:33:00,
2013-03-07 20:38:00,37.0,39.0,29.84,SE,130,2.0,5.0,33,0.00,,,0.00,meteohub,2013-03-08 02:38:00,
2013-03-07 20:43:00,36.9,38.8,29.84,East,88,2.0,4.0,33,0.00,,,0.00,meteohub,2013-03-08 02:43:00,
2013-03-07 20:48:00,36.9,38.8,29.84,SE,130,0.0,4.0,33,0.00,,,0.00,meteohub,2013-03-08 02:48:00,
2013-03-07 20:53:00,36.7,38.8,29.84,SE,129,2.0,4.0,33,0.00,,,0.00,meteohub,2013-03-08 02:53:00,
2013-03-07 20:58:00,36.7,38.7,29.84,ESE,114,0.0,5.0,33,0.00,,,0.00,meteohub,2013-03-08 02:58:00,
2013-03-07 21:04:00,36.5,38.7,29.84,ESE,108,3.0,5.0,33,0.00,,,0.00,meteohub,2013-03-08 03:04:00,
2013-03-07 21:09:00,36.3,38.5,29.84,ESE,109,3.0,4.0,33,0.00,,,0.00,meteohub,2013-03-08 03:09:00,
2013-03-07 21:14:00,36.5,38.3,29.84,ESE,117,4.0,5.0,33,0.00,,,0.00,meteohub,2013-03-08 03:14:00,
2013-03-07 21:24:00,36.5,38.1,29.84,ESE,104,2.0,6.0,33,0.00,,,0.00,meteohub,2013-03-08 03:24:00,
2013-03-07 21:29:00,36.3,37.9,29.84,SE,127,2.0,6.0,33,0.00,,,0.00,meteohub,2013-03-08 03:29:00,
2013-03-07 21:34:00,36.1,37.9,29.84,SE,127,2.0,6.0,33,0.00,,,0.00,meteohub,2013-03-08 03:34:00,
2013-03-07 21:39:00,36.0,37.8,29.84,ENE,76,3.0,6.0,33,0.00,,,0.00,meteohub,2013-03-08 03:39:00,
2013-03-07 21:44:00,35.8,37.8,29.84,ESE,117,3.0,5.0,33,0.00,,,0.00,meteohub,2013-03-08 03:44:00,
2013-03-07 21:49:00,35.8,37.6,29.84,ESE,113,0.0,5.0,33,0.00,,,0.00,meteohub,2013-03-08 03:49:00,
2013-03-07 21:56:00,35.8,37.6,29.84,East,98,6.0,6.0,33,0.00,,,0.00,meteohub,2013-03-08 03:56:00,
2013-03-07 22:02:00,35.6,37.6,29.84,SE,135,4.0,7.0,33,0.00,,,0.00,meteohub,2013-03-08 04:02:00,
2013-03-07 22:07:00,35.6,37.6,29.84,East,94,0.0,7.0,33,0.00,,,0.00,meteohub,2013-03-08 04:07:00,
2013-03-07 22:12:00,35.4,37.6,29.84,East,89,3.0,7.0,33,0.00,,,0.00,meteohub,2013-03-08 04:12:00,
2013-03-07 22:17:00,35.4,37.8,29.84,ESE,106,3.0,6.0,33,0.00,,,0.00,meteohub,2013-03-08 04:17:00,
2013-03-07 22:23:00,35.4,37.8,29.84,SE,125,5.0,6.0,33,0.00,,,0.00,meteohub,2013-03-08 04:23:00,
2013-03-07 22:28:00,35.2,37.6,29.84,ESE,107,4.0,6.0,33,0.00,,,0.00,meteohub,2013-03-08 04:28:00,
2013-03-07 22:33:00,35.2,37.6,29.84,ESE,119,3.0,6.0,33,0.00,,,0.00,meteohub,2013-03-08 04:33:00,
2013-03-07 22:38:00,35.1,37.6,29.84,East,98,4.0,6.0,33,0.00,,,0.00,meteohub,2013-03-08 04:38:00,
2013-03-07 22:43:00,35.1,37.4,29.84,ESE,123,3.0,6.0,33,0.00,,,0.00,meteohub,2013-03-08 04:43:00,
2013-03-07 22:48:00,34.9,37.4,29.84,NE,51,2.0,6.0,33,0.00,,,0.00,meteohub,2013-03-08 04:48:00,
2013-03-07 22:53:00,34.9,37.2,29.84,SE,136,3.0,6.0,33,0.00,,,0.00,meteohub,2013-03-08 04:53:00,
2013-03-07 22:58:00,34.9,37.2,29.84,ESE,104,4.0,6.0,33,0.00,,,0.00,meteohub,2013-03-08 04:58:00,
2013-03-07 23:00:00,34.9,37.0,29.84,ESE,123,5.0,8.0,33,0.00,,,0.00,meteohub,2013-03-08 05:00:00,
2013-03-07 23:01:00,34.9,37.2,29.84,ESE,117,4.0,8.0,33,0.00,,,0.00,meteohub,2013-03-08 05:01:00,
2013-03-07 23:03:00,34.9,37.4,29.84,ESE,118,3.0,8.0,33,0.00,,,0.00,meteohub,2013-03-08 05:03:00,
2013-03-07 23:04:00,34.9,37.6,29.87,ESE,119,4.0,8.0,33,0.00,,,0.00,meteohub,2013-03-08 05:04:00,
2013-03-07 23:09:00,34.7,37.6,29.87,East,98,5.0,9.0,33,0.00,,,0.00,meteohub,2013-03-08 05:09:00,
2013-03-07 23:14:00,34.7,37.6,29.87,ESE,113,3.0,9.0,33,0.00,,,0.00,meteohub,2013-03-08 05:14:00,
2013-03-07 23:20:00,34.5,37.6,29.87,South,171,4.0,8.0,33,0.00,,,0.00,meteohub,2013-03-08 05:20:00,
2013-03-07 23:25:00,34.5,37.6,29.87,East,90,3.0,8.0,33,0.00,,,0.00,meteohub,2013-03-08 05:25:00,
2013-03-07 23:30:00,34.5,37.8,29.87,ESE,112,4.0,6.0,33,0.00,,,0.00,meteohub,2013-03-08 05:30:00,
2013-03-07 23:35:00,34.3,37.6,29.87,ESE,105,0.0,6.0,33,0.00,,,0.00,meteohub,2013-03-08 05:35:00,
2013-03-07 23:40:00,34.2,37.6,29.87,SE,126,6.0,6.0,33,0.00,,,0.00,meteohub,2013-03-08 05:40:00,
2013-03-07 23:45:00,34.2,37.9,29.87,ESE,122,4.0,6.0,33,0.00,,,0.00,meteohub,2013-03-08 05:45:00,
2013-03-07 23:50:00,34.0,37.0,29.87,SE,129,4.0,6.0,32,0.00,,,0.00,meteohub,2013-03-08 05:50:00,
2013-03-07 23:55:00,34.0,37.6,29.87,SE,124,0.0,6.0,33,0.00,,,0.00,meteohub,2013-03-08 05:55:00,